Regional Weather Roundup
Issued by NWS

Home | Current Version | Previous Version | Graphics & Text | Print | Product List | Glossary On
Versions: 1 2 3 4 5 6 7 8 9 10 11 12 13 14 15 16 17 18 19 20 21 22 23 24 25 26 27 28 29 30 31 32 33 34 35 36 37 38 39 40 41 42 43 44 45 46 47 48 49 50
000
ASUS44 KMEG 091000
RWRTN
TENNESSEE HOURLY STATE WEATHER ROUNDUP
NATIONAL WEATHER SERVICE MEMPHIS TN
400 AM CST FRI DEC 09 2016

TNZ002-004-019-021-049-052-054-088>092-091100-
WEST TENNESSEE

CITY           SKY/WX    TMP DP  RH WIND       PRES   REMARKS
MEMPHIS INTL   CLEAR     26  17  68 N8        30.62R WCI  18
NWS MEMPHIS      N/A     24 N/A N/A MISG        N/A
JACKSON        CLEAR     24  16  71 N5        30.61S WCI  18
DYERSBURG      CLEAR     23  14  68 N5        30.62R WCI  17
UNION CITY     CLEAR     19  14  79 CALM      30.60S
PARIS          CLEAR     18  10  73 CALM      30.58S
LEXINGTON      CLEAR     21  12  68 N7        30.56S WCI  13
$$

TNZ008-025-027-028-033-062-065-066-091100-
NORTH MIDDLE TENNESSEE

CITY           SKY/WX    TMP DP  RH WIND       PRES   REMARKS
NASHVILLE      CLOUDY    25  15  66 NW7       30.55S WCI  17
CLARKSVILLE    CLOUDY    22  15  75 NW6       30.56F WCI  14
SMYRNA         CLOUDY    26  17  68 N10       30.56S WCI  16
CROSSVILLE     CLOUDY    21  15  78 NW12      30.42R WCI   9
$$

TNZ061-075-076-078-094-096-097-091100-
SOUTH MIDDLE TENNESSEE

CITY           SKY/WX    TMP DP  RH WIND       PRES   REMARKS
TULLAHOMA      CLEAR     19  12  73 N5        30.49S WCI  13
WINCHESTER     CLEAR     21  16  79 N3        30.49S
SHELBYVILLE    PTCLDY    21  16  79 N5        30.53R WCI  15
$$

TNZ017-018-042-046-047-091100-
NORTHEAST TENNESSEE

CITY           SKY/WX    TMP DP  RH WIND       PRES   REMARKS
TRI CITIES     CLOUDY    26  15  63 W10       30.38S WCI  16
$$

TNZ012-013-036-069-073-074-091100-
CENTRAL EAST TENNESSEE

CITY           SKY/WX    TMP DP  RH WIND       PRES   REMARKS
KNOXVILLE      PTCLDY    26  16  65 CALM      30.45S
OAK RIDGE      CLEAR     27  14  58 VRB6      30.47S WCI  20
GATLINBURG     CLOUDY    25  16  68 CALM      30.44S
$$

TNZ083-085-099-091100-
SOUTHEAST TENNESSEE

CITY           SKY/WX    TMP DP  RH WIND       PRES   REMARKS
CHATTANOOGA    CLEAR     27  16  63 N10       30.48R WCI  17
$$

SKY/WX REPORTED AS FAIR MEANS FEW OR NO CLOUDS BELOW
12 THOUSAND FEET.





USA.gov is the U.S. government's official web portal to all federal, state and local government web resources and services.